| time (UTC) | temp F | wind direction | speed knots | gust knots | rain 1hr in | rain 24hr in | rain mn in | humidity % | barometer mb |
| 20260904043050 | 59 | 287 | 0.9 | 9.6 | 0.00 | 0.00 | 0.00 | 58 | 1019.6 |
| 20260904041552 | 59 | 267 | 0.9 | 11.3 | 0.00 | 0.00 | 0.00 | 56 | 1019.4 |
| 20260904040051 | 60 | 294 | 0.0 | 10.4 | 0.00 | 0.00 | 0.00 | 57 | 1019.5 |
| 20260904034548 | 60 | 239 | 0.9 | 8.7 | 0.00 | 0.00 | 0.00 | 56 | 1019.5 |
| 20260904033045 | 59 | 228 | 0.0 | 7.0 | 0.00 | 0.00 | 0.00 | 56 | 1019.5 |
| 20260904031541 | 60 | 183 | 0.0 | 9.6 | 0.00 | 0.00 | 0.00 | 55 | 1019.8 |
| 20260904030039 | 59 | 237 | 0.0 | 9.6 | 0.00 | 0.00 | 0.00 | 56 | 1020.0 |
| 20260904024536 | 59 | 227 | 0.0 | 9.6 | 0.00 | 0.00 | 0.00 | 57 | 1020.4 |
| 20260904023039 | 57 | 264 | 0.0 | 8.7 | 0.00 | 0.00 | 0.00 | 64 | 1021.0 |
| 20260904021546 | 57 | 290 | 0.9 | 8.7 | 0.00 | 0.00 | 0.00 | 72 | 1021.4 |
| 20260904020032 | 57 | 256 | 0.0 | 11.3 | 0.00 | 0.00 | 0.00 | 71 | 1021.7 |
| 20260904014531 | 57 | 282 | 0.0 | 2.6 | 0.00 | 0.00 | 0.00 | 73 | 1021.9 |
| 20260904013033 | 57 | 279 | 0.0 | 7.0 | 0.00 | 0.00 | 0.00 | 68 | 1021.9 |
| 20260904011528 | 58 | 234 | 0.9 | 8.7 | 0.00 | 0.00 | 0.00 | 65 | 1021.9 |
| 20260904010025 | 57 | 7 | 1.7 | 6.1 | 0.00 | 0.00 | 0.00 | 71 | 1022.1 |
| 20260904004525 | 57 | 283 | 0.0 | 8.7 | 0.00 | 0.01 | 0.00 | 69 | 1022.2 |
| 20260904003024 | 55 | 247 | 0.9 | 7.0 | 0.00 | 0.01 | 0.00 | 77 | 1022.4 |
| 20260904001516 | 55 | 192 | 0.0 | 5.2 | 0.00 | 0.01 | 0.00 | 79 | 1022.5 |
| 20260904000014 | 53 | 292 | 3.5 | 7.8 | 0.00 | 0.01 | 0.00 | 83 | 1022.8 |
| 20260903234510 | 52 | 322 | 0.0 | 6.1 | 0.00 | 0.01 | 0.00 | 86 | 1023.0 |
| 20260903233014 | 52 | 277 | 0.0 | 3.5 | 0.00 | 0.01 | 0.00 | 87 | 1023.1 |
| 20260903231507 | 52 | 282 | 1.7 | 5.2 | 0.00 | 0.01 | 0.00 | 87 | 1023.0 |
| 20260903230005 | 51 | 277 | 1.7 | 7.0 | 0.00 | 0.01 | 0.00 | 87 | 1023.0 |
| 20260903224503 | 51 | 254 | 2.6 | 6.1 | 0.00 | 0.01 | 0.00 | 88 | 1023.0 |
| 20260903223103 | 50 | 322 | 3.5 | 7.8 | 0.00 | 0.01 | 0.00 | 89 | 1022.8 |
| 20260903221555 | 50 | 309 | 0.0 | 4.3 | 0.00 | 0.01 | 0.00 | 89 | 1022.9 |
| 20260903220057 | 49 | 273 | 0.0 | 2.6 | 0.00 | 0.01 | 0.00 | 90 | 1022.6 |
| 20260903214551 | 48 | 308 | 0.0 | 4.3 | 0.00 | 0.01 | 0.00 | 89 | 1022.6 |
| 20260903213102 | 48 | 298 | 0.0 | 5.2 | 0.00 | 0.01 | 0.00 | 90 | 1022.4 |
| 20260903211650 | 47 | 315 | 0.0 | 5.2 | 0.00 | 0.01 | 0.00 | 91 | 1022.4 |
| 20260903210050 | 47 | 285 | 0.0 | 6.1 | 0.00 | 0.01 | 0.00 | 91 | 1022.2 |
| 20260903204545 | 46 | 324 | 0.9 | 4.3 | 0.00 | 0.01 | 0.00 | 91 | 1021.9 |
| 20260903203051 | 46 | 312 | 0.9 | 6.1 | 0.00 | 0.01 | 0.00 | 91 | 1021.9 |
| 20260903201541 | 46 | 322 | 0.0 | 0.0 | 0.00 | 0.01 | 0.00 | 91 | 1021.7 |
| 20260903200040 | 46 | 308 | 0.0 | 0.0 | 0.00 | 0.01 | 0.00 | 91 | 1021.6 |
| 20260903194537 | 46 | 297 | 0.0 | 0.0 | 0.00 | 0.04 | 0.00 | 91 | 1021.5 |
| 20260903193036 | 46 | 228 | 0.0 | 0.0 | 0.00 | 0.04 | 0.00 | 91 | 1021.3 |
| 20260903191540 | 46 | 303 | 1.7 | 4.3 | 0.00 | 0.04 | 0.00 | 91 | 1021.2 |
| 20260903190032 | 46 | 247 | 0.9 | 5.2 | 0.00 | 0.04 | 0.00 | 91 | 1021.1 |
| 20260903184530 | 46 | 277 | 0.9 | 5.2 | 0.00 | 0.05 | 0.00 | 91 | 1021.1 |
| 20260903183030 | 46 | 285 | 0.9 | 4.3 | 0.00 | 0.05 | 0.00 | 90 | 1020.9 |
| 20260903181527 | 47 | 313 | 0.9 | 4.3 | 0.00 | 0.05 | 0.00 | 90 | 1021.0 |
| 20260903180032 | 47 | 273 | 0.0 | 5.2 | 0.00 | 0.05 | 0.00 | 90 | 1020.8 |
| 20260903174523 | 47 | 297 | 0.9 | 6.1 | 0.00 | 0.08 | 0.00 | 90 | 1020.7 |
| 20260903173019 | 47 | 306 | 0.9 | 6.1 | 0.00 | 0.08 | 0.00 | 89 | 1020.6 |
| 20260903171517 | 47 | 289 | 0.9 | 7.8 | 0.00 | 0.08 | 0.00 | 89 | 1020.5 |
| 20260903170017 | 47 | 267 | 1.7 | 6.1 | 0.00 | 0.08 | 0.00 | 89 | 1020.3 |
| 20260903164513 | 47 | 287 | 1.7 | 3.5 | 0.00 | 0.09 | 0.00 | 89 | 1020.2 |
| 20260903163009 | 48 | 284 | 0.9 | 3.5 | 0.00 | 0.09 | 0.00 | 89 | 1020.3 |
| 20260903160008 | 49 | 329 | 0.0 | 2.6 | 0.00 | 0.10 | 0.00 | 89 | 1020.6 |
| 20260903154505 | 49 | 288 | 1.7 | 5.2 | 0.00 | 0.10 | 0.00 | 89 | 1020.8 |
| 20260903153004 | 48 | 320 | 0.0 | 4.3 | 0.00 | 0.10 | 0.00 | 88 | 1020.6 |
| 20260903151503 | 48 | 301 | 0.9 | 5.2 | 0.00 | 0.10 | 0.00 | 87 | 1020.7 |
| 20260903144557 | 49 | 283 | 1.7 | 6.1 | 0.00 | 0.10 | 0.00 | 86 | 1020.6 |
| 20260903143056 | 49 | 239 | 0.0 | 0.9 | 0.00 | 0.10 | 0.00 | 87 | 1020.7 |
| 20260903141553 | 49 | 274 | 0.9 | 4.3 | 0.00 | 0.10 | 0.00 | 86 | 1020.7 |
| 20260903140052 | 49 | 339 | 0.0 | 5.2 | 0.00 | 0.10 | 0.00 | 85 | 1020.7 |
| 20260903134611 | 49 | 311 | 1.7 | 7.8 | 0.00 | 0.16 | 0.10 | 85 | 1020.8 |
| 20260903133053 | 49 | 293 | 0.0 | 4.3 | 0.00 | 0.16 | 0.10 | 85 | 1020.9 |
| 20260903131548 | 49 | 302 | 1.7 | 6.1 | 0.00 | 0.16 | 0.10 | 86 | 1020.7 |
| 20260903130050 | 48 | 289 | 0.0 | 3.5 | 0.00 | 0.16 | 0.10 | 86 | 1020.6 |
| 20260903124552 | 49 | 237 | 0.9 | 4.3 | 0.00 | 0.17 | 0.10 | 86 | 1020.6 |
| 20260903123044 | 49 | 264 | 0.0 | 6.1 | 0.00 | 0.17 | 0.10 | 85 | 1020.5 |
| 20260903121551 | 49 | 294 | 0.9 | 5.2 | 0.00 | 0.17 | 0.10 | 86 | 1020.4 |
| 20260903120056 | 49 | 240 | 0.9 | 7.8 | 0.00 | 0.17 | 0.10 | 85 | 1020.4 |
| 20260903114557 | 49 | 248 | 0.0 | 0.9 | 0.00 | 0.17 | 0.10 | 85 | 1020.4 |
| 20260903113038 | 49 | 299 | 0.0 | 3.5 | 0.00 | 0.17 | 0.10 | 84 | 1020.3 |
| 20260903111538 | 49 | 270 | 0.0 | 5.2 | 0.00 | 0.17 | 0.10 | 84 | 1020.2 |
| 20260903110036 | 49 | 246 | 0.0 | 7.8 | 0.00 | 0.17 | 0.10 | 84 | 1020.1 |
| 20260903104534 | 49 | 298 | 0.0 | 6.1 | 0.00 | 0.17 | 0.10 | 84 | 1019.9 |
| 20260903103032 | 49 | 203 | 0.9 | 7.0 | 0.00 | 0.17 | 0.10 | 83 | 1019.6 |
| 20260903101529 | 50 | 247 | 0.0 | 6.1 | 0.00 | 0.17 | 0.10 | 82 | 1019.4 |
| 20260903100027 | 50 | 260 | 2.6 | 8.7 | 0.00 | 0.17 | 0.10 | 81 | 1019.4 |
| 20260903094524 | 50 | 257 | 2.6 | 7.0 | 0.00 | 0.17 | 0.10 | 80 | 1019.1 |
| 20260903093021 | 50 | 223 | 0.0 | 8.7 | 0.00 | 0.17 | 0.10 | 80 | 1018.9 |
| 20260903091519 | 50 | 239 | 0.0 | 2.6 | 0.00 | 0.17 | 0.10 | 80 | 1018.7 |
| 20260903090119 | 51 | 256 | 2.6 | 7.8 | 0.00 | 0.17 | 0.10 | 78 | 1018.5 |
| 20260903084515 | 51 | 308 | 1.7 | 8.7 | 0.00 | 0.17 | 0.10 | 77 | 1018.2 |
| 20260903083012 | 51 | 263 | 2.6 | 9.6 | 0.00 | 0.17 | 0.10 | 76 | 1017.8 |
| 20260903081511 | 51 | 280 | 0.9 | 6.1 | 0.00 | 0.17 | 0.10 | 76 | 1017.6 |
| 20260903080008 | 51 | 273 | 0.0 | 6.1 | 0.00 | 0.17 | 0.10 | 76 | 1017.4 |
| 20260903074507 | 51 | 303 | 0.0 | 8.7 | 0.00 | 0.17 | 0.10 | 76 | 1017.2 |
| 20260903073004 | 52 | 293 | 0.0 | 0.0 | 0.00 | 0.17 | 0.10 | 73 | 1017.1 |
| 20260903071604 | 52 | 249 | 0.0 | 3.5 | 0.00 | 0.17 | 0.10 | 72 | 1016.8 |
| 20260903070112 | 53 | 233 | 0.0 | 0.9 | 0.00 | 0.17 | 0.10 | 70 | 1016.6 |
| 20260903064555 | 54 | 247 | 0.9 | 7.0 | 0.00 | 0.17 | 0.10 | 67 | 1016.4 |
| 20260903063104 | 56 | 229 | 0.0 | 7.8 | 0.00 | 0.17 | 0.10 | 66 | 1016.3 |
| 20260903061605 | 56 | 231 | 0.0 | 7.8 | 0.00 | 0.17 | 0.10 | 65 | 1015.9 |
| 20260903060051 | 56 | 247 | 0.0 | 7.8 | 0.00 | 0.17 | 0.10 | 65 | 1015.9 |
| 20260903054549 | 56 | 287 | 0.0 | 7.8 | 0.00 | 0.17 | 0.10 | 64 | 1015.6 |
| 20260903053048 | 56 | 229 | 0.0 | 10.4 | 0.00 | 0.17 | 0.10 | 63 | 1015.4 |
| 20260903051545 | 57 | 247 | 0.0 | 7.0 | 0.00 | 0.17 | 0.10 | 63 | 1015.1 |
| 20260903050044 | 57 | 222 | 3.5 | 12.2 | 0.00 | 0.17 | 0.10 | 63 | 1014.8 |
| 20260903044551 | 57 | 245 | 0.9 | 11.3 | 0.00 | 0.17 | 0.10 | 63 | 1014.7 |